Time,TemperatureF,DewpointF,PressureIn,WindDirection,WindDirectionDegrees,WindSpeedMPH,WindSpeedGustMPH,Humidity,HourlyPrecipIn,Conditions,Clouds,dailyrainin,SolarRadiationWatts/m^2,SoftwareType,DateUTC
2013-06-24 00:12:00,71.0,26.0,-100.00,South,180,4.0,8.0,18,0.00,,,-99.99,0.000000,,2013-06-24 06:12:00,
2013-06-24 00:22:00,71.0,26.0,-100.00,South,180,4.0,8.0,18,0.00,,,-99.99,0.000000,,2013-06-24 06:22:00,
2013-06-24 00:43:00,74.0,23.0,-100.00,South,184,7.0,12.0,15,0.00,,,-99.99,0.000000,,2013-06-24 06:43:00,
2013-06-24 01:25:00,72.0,25.0,-100.00,South,185,8.0,11.0,17,0.00,,,-99.99,0.000000,,2013-06-24 07:25:00,
2013-06-24 01:44:00,70.0,28.0,-100.00,SSW,192,9.0,13.0,21,0.00,,,-99.99,0.000000,,2013-06-24 07:44:00,
2013-06-24 02:33:00,69.0,29.0,-100.00,South,184,8.0,12.0,23,0.00,,,-99.99,0.000000,,2013-06-24 08:33:00,
2013-06-24 02:44:00,68.0,29.0,-100.00,SSW,200,7.0,10.0,23,0.00,,,-99.99,0.000000,,2013-06-24 08:44:00,
2013-06-24 02:50:00,67.0,28.0,-100.00,SSW,197,9.0,13.0,23,0.00,,,-99.99,0.000000,,2013-06-24 08:50:00,
2013-06-24 03:12:00,67.0,28.0,-100.00,SSW,197,9.0,13.0,23,0.00,,,-99.99,0.000000,,2013-06-24 09:12:00,
2013-06-24 03:23:00,67.0,28.0,-100.00,SSW,197,9.0,13.0,23,0.00,,,-99.99,0.000000,,2013-06-24 09:23:00,
2013-06-24 03:34:00,67.0,28.0,-100.00,SSW,197,9.0,13.0,23,0.00,,,-99.99,0.000000,,2013-06-24 09:34:00,
2013-06-24 03:44:00,67.0,28.0,-100.00,SSW,197,9.0,13.0,23,0.00,,,-99.99,0.000000,,2013-06-24 09:44:00,
2013-06-24 04:38:00,65.0,27.0,-100.00,South,182,7.0,10.0,23,0.00,,,-99.99,0.000000,,2013-06-24 10:38:00,
2013-06-24 04:51:00,66.0,26.0,-100.00,South,180,8.0,11.0,22,0.00,,,-99.99,0.000000,,2013-06-24 10:51:00,
2013-06-24 05:12:00,65.0,27.0,-100.00,South,191,6.0,10.0,24,0.00,,,-99.99,0.000000,,2013-06-24 11:12:00,
2013-06-24 05:24:00,65.0,27.0,-100.00,South,191,6.0,10.0,24,0.00,,,-99.99,0.000000,,2013-06-24 11:24:00,
2013-06-24 05:43:00,66.0,23.0,-100.00,South,186,7.0,9.0,20,0.00,,,-99.99,0.000000,,2013-06-24 11:43:00,
2013-06-24 06:12:00,65.0,24.0,-100.00,South,184,7.0,9.0,21,0.00,,,-99.99,0.000000,,2013-06-24 12:12:00,
2013-06-24 07:02:00,67.0,23.0,-100.00,South,190,8.0,11.0,19,0.00,,,-99.99,29.000000,,2013-06-24 13:02:00,
2013-06-24 07:33:00,65.0,25.0,-100.00,SSW,198,7.0,9.0,22,0.00,,,-99.99,66.000000,,2013-06-24 13:33:00,
2013-06-24 07:42:00,63.0,27.0,-100.00,SSW,195,6.0,10.0,26,0.00,,,-99.99,91.000000,,2013-06-24 13:42:00,
2013-06-24 07:50:00,67.0,27.0,-100.00,SSW,193,7.0,9.0,22,0.00,,,-99.99,242.000000,,2013-06-24 13:50:00,
2013-06-24 07:54:00,63.0,27.0,-100.00,SSW,195,6.0,10.0,26,0.00,,,-99.99,91.000000,,2013-06-24 13:54:00,
2013-06-24 08:02:00,66.0,27.0,-100.00,SSW,195,8.0,11.0,23,0.00,,,-99.99,190.000000,,2013-06-24 14:02:00,
2013-06-24 08:12:00,66.0,27.0,-100.00,SSW,197,7.0,11.0,23,0.00,,,-99.99,245.000000,,2013-06-24 14:12:00,
2013-06-24 08:22:00,67.0,27.0,-100.00,SSW,193,7.0,9.0,22,0.00,,,-99.99,242.000000,,2013-06-24 14:22:00,
2013-06-24 08:34:00,67.0,27.0,-100.00,SSW,193,7.0,9.0,22,0.00,,,-99.99,242.000000,,2013-06-24 14:34:00,
2013-06-24 08:43:00,67.0,27.0,-100.00,SSW,193,7.0,9.0,22,0.00,,,-99.99,242.000000,,2013-06-24 14:43:00,
2013-06-24 10:22:00,79.0,29.0,-100.00,SSW,196,10.0,16.0,16,0.00,,,-99.99,663.000000,,2013-06-24 16:22:00,
2013-06-24 10:34:00,79.0,29.0,-100.00,SSW,196,10.0,16.0,16,0.00,,,-99.99,663.000000,,2013-06-24 16:34:00,
2013-06-24 10:53:00,79.0,27.0,-100.00,SSW,193,9.0,16.0,15,0.00,,,-99.99,734.000000,,2013-06-24 16:53:00,
2013-06-24 11:12:00,79.0,27.0,-100.00,South,186,10.0,16.0,15,0.00,,,-99.99,640.000000,,2013-06-24 17:12:00,
2013-06-24 11:22:00,80.0,26.0,-100.00,SSW,192,10.0,16.0,14,0.00,,,-99.99,882.000000,,2013-06-24 17:22:00,
2013-06-24 11:33:00,80.0,26.0,-100.00,SSW,192,10.0,16.0,14,0.00,,,-99.99,882.000000,,2013-06-24 17:33:00,
2013-06-24 12:23:00,81.0,29.0,-100.00,South,186,10.0,17.0,15,0.00,,,-99.99,950.000000,,2013-06-24 18:23:00,
2013-06-24 12:43:00,78.0,27.0,-100.00,SSW,194,8.0,14.0,15,0.00,,,-99.99,378.000000,,2013-06-24 18:43:00,
2013-06-24 12:50:00,78.0,29.0,-100.00,South,170,8.0,14.0,17,0.00,,,-99.99,365.000000,,2013-06-24 18:50:00,
2013-06-24 12:53:00,78.0,27.0,-100.00,SSW,194,8.0,14.0,15,0.00,,,-99.99,378.000000,,2013-06-24 18:53:00,
2013-06-24 13:12:00,78.0,29.0,-100.00,South,170,8.0,14.0,17,0.00,,,-99.99,365.000000,,2013-06-24 19:12:00,
2013-06-24 13:34:00,78.0,29.0,-100.00,South,170,8.0,14.0,17,0.00,,,-99.99,365.000000,,2013-06-24 19:34:00,
2013-06-24 13:42:00,78.0,29.0,-100.00,South,170,8.0,14.0,17,0.00,,,-99.99,365.000000,,2013-06-24 19:42:00,
2013-06-24 14:34:00,80.0,27.0,-100.00,South,185,10.0,16.0,14,0.00,,,-99.99,472.000000,,2013-06-24 20:34:00,
2013-06-24 14:46:00,81.0,27.0,-100.00,South,189,10.0,16.0,14,0.00,,,-99.99,642.000000,,2013-06-24 20:46:00,
2013-06-24 14:55:00,81.0,27.0,-100.00,South,189,10.0,16.0,14,0.00,,,-99.99,642.000000,,2013-06-24 20:55:00,
2013-06-24 15:02:00,81.0,27.0,-100.00,SSW,202,10.0,15.0,14,0.00,,,-99.99,465.000000,,2013-06-24 21:02:00,
2013-06-24 15:12:00,80.0,27.0,-100.00,SSW,192,9.0,14.0,14,0.00,,,-99.99,430.000000,,2013-06-24 21:12:00,
2013-06-24 15:33:00,80.0,30.0,-100.00,SSW,198,9.0,17.0,16,0.00,,,-99.99,306.000000,,2013-06-24 21:33:00,
2013-06-24 15:53:00,79.0,29.0,-100.00,SSW,213,10.0,18.0,16,0.00,,,-99.99,313.000000,,2013-06-24 21:53:00,
2013-06-24 16:12:00,79.0,33.0,-100.00,SW,224,9.0,18.0,19,0.00,,,-99.99,343.000000,,2013-06-24 22:12:00,
2013-06-24 16:44:00,77.0,29.0,-100.00,SSW,202,11.0,17.0,17,0.00,,,-99.99,209.000000,,2013-06-24 22:44:00,
2013-06-24 16:53:00,77.0,29.0,-100.00,SSW,202,11.0,17.0,17,0.00,,,-99.99,209.000000,,2013-06-24 22:53:00,
2013-06-24 17:02:00,77.0,30.0,-100.00,SW,215,13.0,29.0,18,0.00,,,-99.99,193.000000,,2013-06-24 23:02:00,
2013-06-24 17:33:00,75.0,31.0,-100.00,SW,224,11.0,22.0,20,0.00,,,-99.99,133.000000,,2013-06-24 23:33:00,
2013-06-24 17:43:00,74.0,32.0,-100.00,WSW,238,9.0,18.0,21,0.00,,,-99.99,105.000000,,2013-06-24 23:43:00,
2013-06-24 17:50:00,73.0,31.0,-100.00,SSW,211,8.0,17.0,21,0.00,,,-99.99,82.000000,,2013-06-24 23:50:00,
2013-06-24 17:53:00,74.0,29.0,-100.00,SSW,212,11.0,19.0,19,0.00,,,-99.99,119.000000,,2013-06-24 23:53:00,
2013-06-24 18:02:00,74.0,29.0,-100.00,SSW,212,11.0,19.0,19,0.00,,,-99.99,119.000000,,2013-06-25 00:02:00,
2013-06-24 18:12:00,74.0,31.0,-100.00,SW,218,10.0,16.0,21,0.00,,,-99.99,95.000000,,2013-06-25 00:12:00,
2013-06-24 18:22:00,73.0,31.0,-100.00,SSW,211,8.0,17.0,21,0.00,,,-99.99,82.000000,,2013-06-25 00:22:00,
2013-06-24 18:33:00,73.0,31.0,-100.00,SSW,211,8.0,17.0,21,0.00,,,-99.99,82.000000,,2013-06-25 00:33:00,
2013-06-24 18:44:00,73.0,31.0,-100.00,SSW,211,8.0,17.0,21,0.00,,,-99.99,82.000000,,2013-06-25 00:44:00,
2013-06-24 19:46:00,71.0,34.0,-100.00,SSW,207,10.0,16.0,26,0.00,,,-99.99,59.000000,,2013-06-25 01:46:00,
2013-06-24 20:22:00,70.0,36.0,-100.00,South,188,12.0,20.0,28,0.00,,,-99.99,20.000000,,2013-06-25 02:22:00,
2013-06-24 20:43:00,66.0,41.0,-100.00,SSE,160,9.0,16.0,39,0.00,,,-99.99,7.000000,,2013-06-25 02:43:00,
2013-06-24 21:12:00,68.0,37.0,-100.00,South,181,9.0,14.0,32,0.00,,,-99.99,3.000000,,2013-06-25 03:12:00,
2013-06-24 22:11:00,70.0,35.0,-100.00,South,181,9.0,14.0,28,0.00,,,-99.99,0.000000,,2013-06-25 04:11:00,
2013-06-24 22:42:00,70.0,36.0,-100.00,South,184,11.0,17.0,28,0.00,,,-99.99,0.000000,,2013-06-25 04:42:00,
2013-06-24 22:50:00,70.0,36.0,-100.00,SSW,195,10.0,16.0,29,0.00,,,-99.99,0.000000,,2013-06-25 04:50:00,
2013-06-24 22:52:00,70.0,36.0,-100.00,South,184,11.0,17.0,28,0.00,,,-99.99,0.000000,,2013-06-25 04:52:00,
2013-06-24 23:11:00,70.0,36.0,-100.00,SSW,196,10.0,15.0,29,0.00,,,-99.99,0.000000,,2013-06-25 05:11:00,
2013-06-24 23:21:00,70.0,36.0,-100.00,SSW,195,10.0,16.0,29,0.00,,,-99.99,0.000000,,2013-06-25 05:21:00,
2013-06-24 23:32:00,70.0,36.0,-100.00,SSW,195,10.0,16.0,29,0.00,,,-99.99,0.000000,,2013-06-25 05:32:00,
2013-06-24 23:44:00,70.0,36.0,-100.00,SSW,195,10.0,16.0,29,0.00,,,-99.99,0.000000,,2013-06-25 05:44:00,